Details From KBWG - BOWLING GREEN WARREN CO RGNL
To KCHA - Lovell Field
Flight Number -
Tags decoded
Created
Modified
Stats Distance 130 nm / 241 km
Max Altitude 0 ft / 0 m
Waypoints 2
Social Downloads 0
Likes 0
Share VATSIM

Download

Looking for another format? Having issues loading an existing format? Contact us
Advertisement - Login to hide

Notes

Requested: KBWG KCHA

Route

KBWG KCHA

ID Type Via Altitude Latitude Longitude Leg Dist Tot Dist Heading (true) Name
O KBWG APT - 0 ft / 0 m 36.96390˚ -86.41974˚ - 0 nm - BOWLING GREEN WARREN CO RGNL
O KCHA APT - 0 ft / 0 m 35.03565˚ -85.20349˚ 130 nm 130 nm 153° / 153° Lovell Field

Altitude Profile

Advertisement - Login to hide

KBWG

Details ICAO KBWG (BWG)
Name BOWLING GREEN WARREN CO RGNL
Region United States
Timezone America/Chicago (UTC-5.0)
Stats Elevation 547 ft / 167 m (AMSL)
Location 36.963899° -86.419738°
Runways 2
Magnetic Variation 4.172° W

METAR

KBWG 240253Z AUTO 00000KT 10SM CLR 23/20 A3012 RMK AO2 SLP192 T02330200 51018

Decode

TAF

TAF KBWG 232320Z 2400/2424 VRB03KT P6SM FEW250 TEMPO 2409/2413 5SM BR FM241500 05006KT P6SM SKC

Decode

Departure Runways

ID Width Length Bearing (true) Bearing (mag) Surface Threshold Offset Overrun Length
03 150 ft / 46 m 6,507 ft / 1,983 m 29.77° 33.94° Asphalt 0 ft / 0 m 0 ft / 0 m
12 150 ft / 46 m 3,951 ft / 1,204 m 120.00° 124.17° Asphalt 0 ft / 0 m 0 ft / 0 m
21 150 ft / 46 m 6,507 ft / 1,983 m 209.78° 213.95° Asphalt 0 ft / 0 m 0 ft / 0 m
30 150 ft / 46 m 3,951 ft / 1,204 m 300.00° 304.17° Asphalt 349 ft / 106 m 0 ft / 0 m

KCHA

Details ICAO KCHA (CHA)
Name Lovell Field
Region United States
Timezone America/New_York (UTC-4.0)
Stats Elevation 683 ft / 208 m (AMSL)
Location 35.035654° -85.203491°
Runways 2
Magnetic Variation 4.783° W

METAR

KCHA 240253Z 36007KT 10SM SCT050 BKN250 26/19 A3008 RMK AO2 SLP178 T02610189 51019

Decode

TAF

TAF KCHA 232320Z 2400/2424 VRB03KT P6SM VCSH SCT050 BKN250 FM240200 VRB03KT P6SM SCT250 FM241500 VRB03KT P6SM SCT040

Decode

Destination Runways

ID Width Length Bearing (true) Bearing (mag) Surface Threshold Offset Overrun Length
02 151 ft / 46 m 7,416 ft / 2,260 m 16.63° 21.41° Asphalt 0 ft / 0 m 49 ft / 15 m
15 151 ft / 46 m 5,580 ft / 1,701 m 145.60° 150.38° Asphalt 105 ft / 32 m 0 ft / 0 m
20 151 ft / 46 m 7,416 ft / 2,260 m 196.63° 201.41° Asphalt 0 ft / 0 m 0 ft / 0 m
33 151 ft / 46 m 5,580 ft / 1,701 m 325.61° 330.39° Asphalt 574 ft / 175 m 0 ft / 0 m

Approach Navaids

Runway Type Ident Frequency Range Bearing (true) Bearing (mag) Slope Elevation
02 Localiser ICGW 108.30 MHz 18 nm / 33 km 16.63° 21.41° - 667 ft / 203 m (AMSL)
02 Glidescope ICGW 108.30 MHz 10 nm / 19 km 16.63° 21.41° 3.00° 675 ft / 206 m (AMSL)
20 Localiser ICHA 109.50 MHz 18 nm / 33 km 196.63° 201.41° - 674 ft / 205 m (AMSL)
20 Glidescope ICHA 109.50 MHz 10 nm / 19 km 196.63° 201.41° 3.00° 663 ft / 202 m (AMSL)